Location: Newark
(44.3681°N, 100.3364°W)
Time: 21:23:39
(UTC+00:00)

Vanguard 1 - Pass Details

Date: 23 February 2020
Orbit: 649 x 3833 km, 34.2° (Epoch: 09 April)

Event Time Altitude Azimuth Distance (km) Brightness Sun altitude
Rises 17:34:50 0° 264° (W) 7,634 14.4 32.9°
Reaches altitude 10° 17:40:39 10° 261° (W) 6,277 14.1 33.3°
Maximum altitude 17:57:47 53° 192° (SSW) 2,589 13.5 34.3°
Drops below altitude 10° 18:07:17 10° 119° (ESE) 3,627 13.7 34.8°
Sets 18:09:43 0° 114° (ESE) 4,306 13.8 34.9°
